星链-36886(STARLINK-36886)

导读

STARLINK-36886(NORAD编号68175)是美国SpaceX公司星链(Starlink)星座中的一颗低轨通信卫星,属于第三代星链卫星(v1.5/Block V批次)。它运行在约540公里的近地轨道,轨道倾角约53度,公转周期约95.4分钟。该卫星旨在为全球范围内用户,尤其是偏远地区提供高速宽带互联网接入服务,搭载了改进型推进系统与通信设备,可提升星链网络的覆盖范围与连接稳定性,目前处于正常在轨运行状态,是星链巨型低轨卫星互联网星座的组成部分。

基本信息
目录编号:
68175
目录名称:
STARLINK-36886
国际标识:
2026-050J
轨道中心:
EARTH
卫星名称:
星链-36886
卫星全名:
星链-36886(STARLINK-36886)
卫星状态:
在轨 (已飞行175 天)
发射日期:
2026-03-14 UTC
国别 :
美国 (US)
星等 :
--
轨道信息
数据来源 国际轨道数据
星历时间: 2026-09-05T11:32:44+0800
9小时前
查看轨道信息
半长轴: 6840.806km
偏心率: 0.0001407
轨道倾角: 53.158°
近地点辐角 49.805°
升交点赤经 149.306°
平近点角 310.307°
近地点: 461.706km
远地点: 463.632km
周期: 93.847分钟
每日圈数: 15.344116
详细信息
固有亮度:
5
最大亮度:
2.5
卫星平台:
Starlink V1.0
覆盖范围:
全球
运营商:
太空探索技术公司
运营商所在国:
美国
制造商(研发单位):
太空探索技术公司
制造商所在国:
美国
使用方式:
暂无
卫星简介
Starlink 计划是 SpaceX 推出的全球卫星互联网项目,通过发射低轨道卫星,为全球尤其是偏远地区提供高速、低延迟的互联网服务。自 2019 年起,Starlink 已部署数千颗卫星,旨在缩小全球数字鸿沟,推动互联网普及。该项目还为军事、航空等行业提供通信支持,带来广泛经济效益。
2D轨道图
3D轨道图
轨道高度分析图
轨道倾角分析图
轨道综合分析图
查看轨道综合分析图
交会数据列表
事件ID 空间交会对象 最接近时刻(TCA) 交会距离 交会风险概率(CRP) 交会风险指数(CRI) 操作
CDM_260905-074201-821406-817524
2026-09-05T
07:42:08+0000
2.254 km
极远距离
1.980782E-6 低风险 0.41
CDM_260905-024205-248506-817521
2026-09-05T
02:42:46+0000
2.611 km
极远距离
1.450208E-6 低风险 0.38
CDM_260906-014405-937706-817521
2026-09-06T
01:44:36+0000
2.904 km
极远距离
8.190116E-7 极低风险 0.33
CDM_260905-185005-261106-817521
2026-09-05T
18:50:20+0000
2.971 km
极远距离
6.664149E-7 极低风险 0.31